AETHER-2

导读

AETHER-2是加拿大(CA)于北京时间2023年11月11日08:00发射的一颗技术实验卫星。作为新兴航天项目的组成部分,该卫星承载着加拿大航天领域技术验证与空间环境探索的任务目标,将开展相关空间科学数据采集与技术测试工作,进一步推动加拿大微小卫星技术发展,为后续同类航天任务积累宝贵工程经验,丰富人类对近地空间的探索认知。

Basic Information
目录编号:
58299
目录名称:
AETHER-2
国际标识:
2023-174AV
轨道中心:
EARTH
卫星名称:
AETHER-2
卫星全名:
--
卫星状态:
在轨 (已飞行1028 天)
发射日期:
2023-11-11 UTC
国别 :
加拿大 (CA)
星等 :
--
Orbit Information
数据来源 国际轨道数据
星历时间: 2026-09-02T20:20:35+0800
1天前
查看轨道信息
半长轴: 6838.037km
偏心率: 0.0005669
轨道倾角: 97.386°
近地点辐角 222.365°
升交点赤经 328.937°
平近点角 137.716°
近地点: 456.023km
远地点: 463.777km
周期: 93.790分钟
每日圈数: 15.353438
Detailed Information
使用方式:
暂无
2D Orbit Map
3D Orbit Map
Orbit Altitude Analysis Chart
Orbit Inclination Analysis Chart
Orbit Comprehensive Analysis Chart
View Comprehensive Chart
Conjunction Data List
Event ID Objects TCA Miss Dist (km) Collision Risk Probability Collision Risk Index (CRI) Action
CDM_260830-053305-365505-829923
AETHER-2 (58299)
2026-08-30T
05:33:04+0000
0.666 km
远距离
9.966562E-5 中风险 0.75
CDM_260827-205605-829905-884623
AETHER-2 (58299)
2026-08-27T
20:56:13+0000
1.334 km
极远距离
9.894948E-6 低风险 0.55
CDM_260905-141105-829906-486421
AETHER-2 (58299)
2026-09-05T
14:11:13+0000
1.429 km
极远距离
7.428833E-6 低风险 0.52
CDM_260903-083005-343905-829922
AETHER-2 (58299)
2026-09-03T
08:30:18+0000
1.610 km
极远距离
3.451102E-6 低风险 0.46
CDM_260827-190005-829906-904422
AETHER-2 (58299)
2026-08-27T
19:00:59+0000
2.253 km
极远距离
2.062153E-6 低风险 0.41
CDM_260905-094705-399905-829921
AETHER-2 (58299)
2026-09-05T
09:47:01+0000
2.456 km
极远距离
1.782117E-6 低风险 0.4
CDM_260902-075605-829906-519021
AETHER-2 (58299)
2026-09-02T
07:56:37+0000
2.519 km
极远距离
1.709564E-6 低风险 0.4
CDM_260828-010005-829906-637023
AETHER-2 (58299)
2026-08-28T
01:00:56+0000
2.587 km
极远距离
1.650198E-6 低风险 0.39
CDM_260905-090204-943105-829921
AETHER-2 (58299)
2026-09-05T
09:02:33+0000
2.763 km
极远距离
1.479638E-6 低风险 0.38
CDM_260831-211505-829906-606121
AETHER-2 (58299)
2026-08-31T
21:15:58+0000
2.788 km
极远距离
1.471351E-6 低风险 0.38